User: anonymous   Login
Location: Oshawa
(43.9000°N, 78.8670°W)
Time: 17:49:18
(UTC-04:00)
Language:

Explorer 11/Cluster Stage 4 - Orbit

View from above orbital plane
View from above orbital plane
View from above satellite
View from above satellite

Ground track
Ground track

The orbit data is extracted from the following two-line orbital elements,

1   107U 61013A   17229.54529754 +.00000532 +00000-0 +52840-4 0  9994
2   107 028.7879 263.9167 0549151 356.2029 003.4487 14.08363361820176
Epoch (UTC): 17 August 2017 13:05:13
Eccentricity: 0.0549151
inclination: 28.7879°
perigee height: 467 km
apogee height: 1263 km
right ascension of ascending node: 263.9167°
argument of perigee: 356.2029°
revolutions per day: 14.08363361
mean anomaly at epoch: 3.4487°
orbit number at epoch: 82017

The dashed part of the orbit path shows where the satellite is in the earth's shadow,  

DLR